When you browse on this site, cookies collect data to enhance your experience and personalize the content and advertising you see.
Visit our Privacy Policy to learn more. By continuing to use the site, you agree to this use of cookies and data.
  • In Hungary
  • List of Countries
  • For 7 days
  • Water Temperature
  • Weather Map
  • News
  • Weather Widgets
  • user-avatar
    Login

    Hourly Weather Mescheryakovka

    Today, 29 May, Friday

    Time Temperature Precipitation Wind Pressure Humidity
    00:00 +16°C° 0 mm 6 mps 747 mmHg 84%
    01:00 +15°C° 0 mm 6 mps 747 mmHg 84%
    02:00 +15°C° 0 mm 7 mps 747 mmHg 83%
    03:00 +14°C° 0 mm 7 mps 747 mmHg 83%
    04:00 +14°C° 0 mm 7 mps 747 mmHg 80%
    05:00 +14°C° 0 mm 7 mps 747 mmHg 81%
    06:00 +15°C° 0 mm 7 mps 747 mmHg 81%
    07:00 +16°C° 0 mm 7 mps 747 mmHg 81%
    08:00 +18°C° 0 mm 7 mps 747 mmHg 77%
    09:00 +21°C° 0 mm 7 mps 747 mmHg 72%
    10:00 +23°C° 0 mm 7 mps 747 mmHg 67%
    11:00 +24°C° 0 mm 7 mps 747 mmHg 63%
    12:00 +26°C° 0 mm 7 mps 747 mmHg 60%
    13:00 +27°C° 0 mm 6 mps 747 mmHg 56%
    14:00 +27°C° 0 mm 6 mps 747 mmHg 56%
    15:00 +28°C° 0 mm 6 mps 747 mmHg 55%
    16:00 +28°C° 0 mm 6 mps 746 mmHg 54%
    17:00 +27°C° 0 mm 5 mps 746 mmHg 58%
    18:00 +26°C° 0 mm 5 mps 746 mmHg 62%
    19:00 +26°C° 0 mm 4 mps 746 mmHg 66%
    20:00 +23°C° 0 mm 4 mps 746 mmHg 70%
    21:00 +21°C° 0 mm 4 mps 746 mmHg 75%
    22:00 +20°C° 0 mm 4 mps 746 mmHg 80%
    23:00 +19°C° 0 mm 4 mps 746 mmHg 79%

    Tomorrow, 30 May, Saturday

    Time Temperature Precipitation Wind Pressure Humidity
    00:00 +17°C° 0 mm 5 mps 746 mmHg 78%
    01:00 +17°C° 0 mm 5 mps 746 mmHg 77%
    02:00 +16°C° 0 mm 5 mps 746 mmHg 76%
    03:00 +16°C° 0 mm 5 mps 746 mmHg 76%
    04:00 +15°C° 0 mm 5 mps 746 mmHg 75%
    05:00 +16°C° 0 mm 5 mps 746 mmHg 71%
    06:00 +17°C° 0 mm 5 mps 746 mmHg 68%
    07:00 +19°C° 0 mm 6 mps 746 mmHg 64%
    08:00 +21°C° 0 mm 6 mps 746 mmHg 61%
    09:00 +22°C° 0 mm 6 mps 746 mmHg 59%
    10:00 +23°C° 0 mm 6 mps 745 mmHg 57%
    11:00 +26°C° 0 mm 6 mps 745 mmHg 55%
    12:00 +27°C° 0 mm 6 mps 745 mmHg 52%
    13:00 +28°C° 0 mm 6 mps 744 mmHg 50%
    14:00 +29°C° 0 mm 5 mps 744 mmHg 48%
    15:00 +30°C° 0 mm 4 mps 744 mmHg 46%
    16:00 +32°C° 0 mm 4 mps 744 mmHg 44%
    17:00 +30°C° 0 mm 4 mps 743 mmHg 48%
    18:00 +29°C° 0 mm 3 mps 743 mmHg 53%
    19:00 +28°C° 0 mm 3 mps 743 mmHg 57%
    20:00 +27°C° 0 mm 3 mps 743 mmHg 60%
    21:00 +26°C° 0 mm 4 mps 742 mmHg 62%
    22:00 +23°C° 0 mm 4 mps 742 mmHg 65%
    23:00 +23°C° 0 mm 5 mps 742 mmHg 63%

    Day after tomorrow, 31 May, Sunday

    Time Temperature Precipitation Wind Pressure Humidity
    00:00 +23°C° 0 mm 5 mps 741 mmHg 61%
    01:00 +23°C° 0 mm 6 mps 741 mmHg 59%
    02:00 +23°C° 0 mm 6 mps 740 mmHg 58%
    03:00 +22°C° 0 mm 5 mps 740 mmHg 56%
    04:00 +22°C° 0 mm 5 mps 739 mmHg 55%
    05:00 +22°C° 0 mm 6 mps 739 mmHg 61%
    06:00 +22°C° 0 mm 6 mps 739 mmHg 67%
    07:00 +22°C° 0 mm 7 mps 739 mmHg 73%
    08:00 +23°C° 0 mm 7 mps 740 mmHg 70%
    09:00 +26°C° 0 mm 8 mps 740 mmHg 67%
    10:00 +27°C° 0 mm 8 mps 740 mmHg 64%
    11:00 +27°C° 0 mm 8 mps 740 mmHg 60%
    12:00 +27°C° 0 mm 8 mps 741 mmHg 55%
    13:00 +28°C° 0 mm 8 mps 741 mmHg 51%
    14:00 +28°C° 0 mm 8 mps 741 mmHg 48%
    15:00 +27°C° 0 mm 8 mps 742 mmHg 45%
    16:00 +27°C° 0 mm 7 mps 742 mmHg 42%
    17:00 +26°C° 0 mm 6 mps 742 mmHg 46%
    18:00 +25°C° 0 mm 5 mps 742 mmHg 50%
    19:00 +25°C° 0 mm 4 mps 742 mmHg 54%
    20:00 +23°C° 0 mm 4 mps 742 mmHg 56%
    21:00 +22°C° 0 mm 4 mps 743 mmHg 58%
    22:00 +20°C° 0 mm 4 mps 743 mmHg 60%
    23:00 +20°C° 0 mm 4 mps 743 mmHg 61%

    1 June, Monday

    Time Temperature Precipitation Wind Pressure Humidity
    00:00 +19°C° 0 mm 4 mps 743 mmHg 62%
    01:00 +18°C° 0 mm 4 mps 743 mmHg 62%
    02:00 +17°C° 0 mm 4 mps 743 mmHg 65%
    03:00 +17°C° 0 mm 3 mps 743 mmHg 68%
    04:00 +16°C° 0 mm 3 mps 743 mmHg 71%
    05:00 +17°C° 0 mm 3 mps 743 mmHg 70%
    06:00 +18°C° 0 mm 3 mps 743 mmHg 68%
    07:00 +19°C° 0 mm 3 mps 744 mmHg 67%
    08:00 +20°C° 0 mm 3 mps 744 mmHg 60%
    09:00 +21°C° 0 mm 3 mps 744 mmHg 53%
    10:00 +23°C° 0 mm 4 mps 744 mmHg 46%
    11:00 +25°C° 0 mm 4 mps 744 mmHg 43%
    12:00 +25°C° 0 mm 4 mps 744 mmHg 40%
    13:00 +26°C° 0 mm 4 mps 744 mmHg 37%
    14:00 +26°C° 0 mm 4 mps 744 mmHg 37%
    15:00 +26°C° 0 mm 4 mps 744 mmHg 37%
    16:00 +26°C° 0 mm 4 mps 743 mmHg 37%
    17:00 +26°C° 0 mm 3 mps 743 mmHg 41%
    18:00 +25°C° 0 mm 2 mps 744 mmHg 45%
    19:00 +25°C° 0 mm 2 mps 744 mmHg 49%
    20:00 +23°C° 0 mm 2 mps 744 mmHg 52%
    21:00 +21°C° 0 mm 1 mps 744 mmHg 54%
    22:00 +20°C° 0 mm 1 mps 744 mmHg 57%
    23:00 +19°C° 0 mm 1 mps 744 mmHg 57%

    2 June, Tuesday

    Time Temperature Precipitation Wind Pressure Humidity
    00:00 +17°C° 0 mm 0 mps 744 mmHg 58%
    01:00 +16°C° 0 mm 0 mps 744 mmHg 59%
    02:00 +16°C° 0 mm 0 mps 744 mmHg 60%
    03:00 +15°C° 0 mm 0 mps 744 mmHg 61%
    04:00 +15°C° 0 mm 0 mps 743 mmHg 63%
    05:00 +18°C° 0 mm 1 mps 744 mmHg 60%
    06:00 +20°C° 0 mm 1 mps 744 mmHg 57%
    07:00 +20°C° 0 mm 2 mps 744 mmHg 55%
    08:00 +23°C° 0 mm 2 mps 744 mmHg 49%
    09:00 +25°C° 0 mm 2 mps 744 mmHg 44%
    10:00 +26°C° 0 mm 3 mps 744 mmHg 39%
    11:00 +27°C° 0 mm 3 mps 744 mmHg 37%
    12:00 +28°C° 0 mm 3 mps 744 mmHg 34%
    13:00 +28°C° 0 mm 3 mps 744 mmHg 32%
    14:00 +29°C° 0 mm 3 mps 743 mmHg 32%
    15:00 +29°C° 0 mm 4 mps 743 mmHg 32%
    16:00 +29°C° 0 mm 4 mps 743 mmHg 33%
    17:00 +28°C° 0 mm 4 mps 742 mmHg 38%
    18:00 +27°C° 0 mm 4 mps 742 mmHg 43%
    19:00 +26°C° 0 mm 3 mps 742 mmHg 49%
    20:00 +25°C° 0 mm 4 mps 741 mmHg 51%
    21:00 +23°C° 0 mm 4 mps 741 mmHg 53%
    22:00 +21°C° 0 mm 5 mps 741 mmHg 55%
    23:00 +21°C° 0.9 mm 4 mps 740 mmHg 61%

    3 June, Wednesday

    Time Temperature Precipitation Wind Pressure Humidity
    00:00 +20°C° 0.9 mm 4 mps 740 mmHg 67%
    01:00 +19°C° 0.9 mm 4 mps 739 mmHg 73%
    02:00 +18°C° 1.6 mm 4 mps 739 mmHg 74%
    03:00 +18°C° 1.6 mm 4 mps 739 mmHg 75%
    04:00 +16°C° 1.6 mm 5 mps 739 mmHg 76%
    05:00 +17°C° 1.9 mm 5 mps 739 mmHg 78%
    06:00 +17°C° 1.9 mm 5 mps 739 mmHg 80%
    07:00 +17°C° 1.9 mm 6 mps 739 mmHg 81%
    08:00 +20°C° 0 mm 5 mps 739 mmHg 75%
    09:00 +22°C° 0 mm 4 mps 739 mmHg 69%
    10:00 +25°C° 0 mm 3 mps 739 mmHg 62%
    11:00 +26°C° 0 mm 3 mps 739 mmHg 59%
    12:00 +27°C° 0 mm 4 mps 739 mmHg 57%
    13:00 +28°C° 0 mm 4 mps 739 mmHg 54%
    14:00 +28°C° 0 mm 4 mps 740 mmHg 54%
    15:00 +28°C° 0 mm 5 mps 740 mmHg 54%
    16:00 +28°C° 0 mm 6 mps 740 mmHg 54%
    17:00 +27°C° 0 mm 5 mps 741 mmHg 57%
    18:00 +26°C° 0 mm 5 mps 741 mmHg 60%
    19:00 +25°C° 0 mm 5 mps 742 mmHg 63%
    20:00 +22°C° 0 mm 4 mps 742 mmHg 68%
    21:00 +21°C° 0 mm 4 mps 742 mmHg 72%
    22:00 +19°C° 0 mm 4 mps 742 mmHg 76%
    23:00 +19°C° 0 mm 3 mps 743 mmHg 79%
    Show more